Location: *
(40.7053°S, 175.8732°E)
Time: 17:43:02
(UTC+00:00)

Daily predictions for brighter satellites

Satellite Brightness Start Highest point End
(mag) Time Altitude Azimuth Time Altitude Azimuth Time Altitude Azimuth
Cosmos 2263 Rocket 4.0 14:27:01 27° SE 14:27:01 27° SE 14:29:46 10° SE
SL-16 R/B 3.5 14:30:49 10° SSE 14:35:46 43° ESE 14:35:46 43° ESE
Cosmos 1943 4.2 14:50:52 10° SSW 14:56:19 44° ESE 15:01:46 10° NE
Cosmos 1092 Rocket 4.4 14:59:35 59° SSE 14:59:35 59° SSE 15:04:45 10° S
Cosmos 1603 4.4 14:59:35 10° SSW 15:08:32 23° NE 15:10:36 10° NE
ADEOS Rocket 3.6 15:08:55 10° S 15:12:44 44° S 15:12:44 44° S
Cosmos 407 Rocket 4.2 15:23:05 50° ENE 15:23:21 51° ENE 15:28:34 10° SSE
Cosmos 1809 Rocket 4.3 15:32:03 77° N 15:32:33 90° WSW 15:38:50 10° S
Meteor 1-10 Rocket 4.4 15:30:56 10° SSW 15:35:31 59° SSW 15:35:31 59° SSW
Cosmos 1428 Rocket 4.5 15:39:46 61° WSW 15:39:46 61° WSW 15:45:33 10° S
BREEZE-M DEB (TANK) 3.6 15:42:42 72° NNW 15:42:42 72° NNW 15:53:18 10° NE
Cosmos 2026 Rocket 4.0 15:42:52 62° WSW 15:42:52 62° WSW 15:49:13 10° S
SL-4 R/B 4.0 15:42:59 24° SSW 15:44:46 30° SSE 15:49:05 10° E
ATLAS 2AS CENTAUR R/B 2.7 15:39:22 10° SW 15:46:24 89° ESE 15:53:54 10° NNE
ALOS 4.1 15:51:57 19° SSW 15:51:57 19° SSW 15:53:20 10° SSW
Hubble Space Telescope 3.4 15:54:22 11° NNE 15:54:22 11° NNE 15:54:44 10° NNE
SL-24 DEB 4.4 15:54:34 61° SSW 15:54:34 61° SSW 15:58:35 10° S
Cosmos 1553 Rocket 3.8 15:52:52 10° S 15:59:03 86° W 16:05:10 10° N
Cosmos 1602 4.5 16:00:51 37° NE 16:02:01 52° E 16:05:52 10° SSE
Cosmos 1844 4.5 15:58:47 18° N 16:02:47 50° ENE 16:08:16 10° SE
Meteor 1-27 Rocket 3.6 16:02:17 10° SSW 16:07:54 70° W 16:13:34 10° N
Cosmos 2263 Rocket 3.3 16:08:42 26° SW 16:08:42 26° SW 16:13:15 10° S
Cosmos 839 Rocket 4.3 16:07:28 28° NNW 16:11:08 79° ENE 16:18:47 10° SSE
DELTA 2 DEB (DPAF) 4.0 16:08:30 10° SSE 16:13:04 85° WSW 16:14:34 42° NNW
Sich 1 3.1 16:11:11 28° N 16:13:30 77° E 16:17:55 10° S
BREEZE-M DEB (TANK) 4.4 16:17:00 25° NE 16:17:08 25° NE 16:19:48 10° ESE
Cosmos 1805 Rocket 3.5 16:17:22 44° NNW 16:18:42 72° W 16:23:14 10° S
USA 305 2.8 16:18:08 59° WNW 16:18:53 80° SW 16:23:16 10° SE
Cosmos 1500 Rocket 4.3 16:20:39 36° WSW 16:20:39 36° WSW 16:24:18 10° S
SL-16 R/B 3.4 16:14:53 10° S 16:20:09 29° WSW 16:20:52 29° WSW
Cosmos 1633 Rocket 4.4 16:16:10 10° NNE 16:20:16 39° E 16:24:25 10° SSE
Envisat 3.6 16:16:04 10° NNE 16:21:05 60° ESE 16:26:10 10° S
Cosmos 1340 Rocket 3.8 16:23:16 10° N 16:27:03 47° E 16:30:54 10° SSE
Cosmos 1655 Rocket 4.0 16:22:15 10° N 16:28:35 80° W 16:35:04 10° S
Cosmos 676 Rocket 4.0 16:27:41 16° NNW 16:31:56 89° ENE 16:37:20 10° SSE
USA 307 2.9 16:31:13 42° WNW 16:32:33 70° SW 16:36:54 10° SE
ISS -1.3 16:31:01 12° N 16:33:11 20° NE 16:35:46 10° E
ADEOS 3.9 16:28:13 10° NNE 16:33:26 70° ESE 16:38:42 10° S
Meteor 1-19 Rocket 4.4 16:29:51 10° S 16:35:42 79° E 16:41:17 10° NNE
Milstar 3 3.9 16:31:46 22° NW 16:36:07 34° N 16:42:10 10° ENE
Cosmos 1607 4.0 16:34:01 28° WNW 16:37:12 57° SW 16:43:16 10° SSE
Cosmos 1943 4.3 16:35:26 10° SW 16:41:50 22° NW 16:44:44 10° NNW
CZ-4C R/B 3.4 16:37:41 10° S 16:42:05 70° WSW 16:45:46 13° NNW
Cosmos 2315 Rocket 4.2 16:37:03 10° S 16:43:26 76° E 16:49:47 10° NNE
Cosmos 1666 3.7 16:40:37 10° N 16:44:22 50° E 16:48:11 10° SSE
H-2A R/B 2.6 16:42:02 10° N 16:45:52 76° WNW 16:49:44 10° SSW
Cosmos 2266 Rocket 3.9 16:40:39 10° NNW 16:46:38 63° W 16:52:48 10° S
USA 306 3.3 16:44:55 29° W 16:46:47 50° SW 16:51:02 10° SE
USA 308 3.3 16:49:44 26° W 16:51:52 50° SW 16:56:06 10° SE
Cosmos 1844 Rocket 2.9 16:51:04 17° NW 16:55:09 49° WSW 17:00:39 10° SSE
Cosmos 1954 Rocket 4.3 16:55:30 13° NW 17:00:05 49° WSW 17:05:19 10° S
S3M 4.4 16:55:54 10° SSW 17:01:54 43° W 17:07:52 10° NNW
SL-08 R/B 3.3 16:58:24 10° S 17:03:18 74° WSW 17:08:03 10° NNW
Cosmos 468 Rocket 4.1 17:06:21 10° SSW 17:11:46 86° ESE 17:17:07 10° NNE
Cosmos 1470 Rocket 3.6 17:07:38 10° N 17:12:00 86° E 17:16:25 10° S
Cosmos 1933 Rocket 4.5 17:08:58 10° N 17:13:22 55° E 17:17:49 10° SSE
Cosmos 2228 Rocket 4.4 17:11:18 10° SW 17:14:28 19° W 17:17:37 10° NW
Cosmos 1666 Rocket 4.1 17:11:19 10° NNW 17:15:28 39° WSW 17:19:44 10° S
CZ-2C R/B 4.0 17:10:58 10° NNE 17:16:06 53° ESE 17:21:02 10° S
SMAP 4.5 17:11:47 10° NE 17:16:13 43° ESE 17:20:42 10° S
Genesis I 3.2 17:13:48 10° NW 17:17:39 59° SW 17:21:27 10° SSE
Meteor 1-31 Rocket 3.8 17:20:25 10° NNW 17:23:36 24° W 17:26:48 10° SW
RESURS DK-1 2.6 17:20:06 10° SW 17:24:10 48° WNW 17:28:10 10° N
CZ-4B R/B 3.1 17:20:04 10° N 17:24:35 73° WNW 17:29:03 10° SSW
SL-4 R/B 2.4 17:20:02 10° SW 17:24:57 87° NW 17:29:44 10° NE
Cosmos 1244 Rocket 4.5 17:19:13 10° N 17:25:23 85° W 17:31:39 10° S
NOAA 11 4.2 17:22:41 10° N 17:28:08 76° WNW 17:33:40 10° SSW
ERBS 2.4 17:24:56 10° WNW 17:28:11 57° SW 17:31:29 10° SE
Cosmos 1536 4.3 17:24:29 10° NNE 17:28:19 43° E 17:32:13 10° SSE
Meteor 1-14 Rocket 4.4 17:24:47 10° NNW 17:30:12 53° WSW 17:35:43 10° S
Lacrosse 4 Rocket 2.0 17:26:17 10° NNW 17:30:44 69° ENE 17:35:15 10° SSE
Cosmos 540 Rocket 3.8 17:26:50 10° SSW 17:32:03 74° ESE 17:37:14 10° NNE
Meteor PRIRODA 3.8 17:28:30 10° N 17:32:10 53° W 17:35:53 10° SSW
[s.n.49181] 3.6 17:31:45 10° SSW 17:34:33 53° ESE 17:37:20 10° NE
[s.n.49180] 3.6 17:32:03 10° SSW 17:34:51 53° ESE 17:37:38 10° NE
[s.n.49176] 3.5 17:32:19 10° SSW 17:35:07 54° ESE 17:37:54 10° NE
NOAA 6 4.4 17:30:08 10° NNE 17:35:19 76° ESE 17:40:33 10° S
[s.n.49178] 3.5 17:32:35 10° SSW 17:35:24 55° ESE 17:38:11 10° NE
[s.n.49179] 3.5 17:32:52 10° SSW 17:35:41 55° ESE 17:38:28 10° NE
OAO 2 Rocket 4.0 17:31:09 10° WNW 17:35:51 43° N 17:40:33 10° ENE
[s.n.49177] 3.5 17:33:12 10° SSW 17:36:00 56° ESE 17:38:48 10° NE
[s.n.49175] 3.4 17:33:27 10° SSW 17:36:16 57° ESE 17:39:04 10° NE
ATLAS 2AS CENTAUR R/B 4.1 17:32:03 10° WSW 17:36:33 18° WNW 17:41:12 10° NW
[s.n.49172] 3.4 17:33:45 10° SSW 17:36:35 57° ESE 17:39:22 10° NE
[s.n.49170] 3.4 17:34:02 10° SSW 17:36:52 58° ESE 17:39:39 10° NE
[s.n.49174] 3.4 17:34:19 10° SSW 17:37:08 59° ESE 17:39:56 10° NE
[s.n.49168] 3.3 17:34:53 10° SSW 17:37:43 60° ESE 17:40:32 10° NE
YAOGAN 6 4.1 17:35:28 10° NW 17:37:49 17° W 17:40:12 10° SW
Cosmos 1378 3.2 17:34:10 10° S 17:37:58 90° ESE 17:41:43 10° N
Cosmos 2278 Rocket 3.0 17:32:28 10° N 17:38:01 59° ENE 17:43:38 10° SSE
[s.n.49171] 3.3 17:35:11 10° SSW 17:38:01 61° ESE 17:40:50 10° NE
[s.n.49169] 3.3 17:35:30 10° SSW 17:38:20 62° ESE 17:41:09 10° NNE
[s.n.49164] 3.2 17:35:47 10° SSW 17:38:37 62° ESE 17:41:25 10° NNE
USA 276 2.5 17:35:36 10° NW 17:38:47 63° NE 17:41:59 10° ESE
[s.n.49166] 3.2 17:36:05 10° SSW 17:38:56 63° ESE 17:41:45 10° NNE
[s.n.49167] 3.2 17:36:22 10° SSW 17:39:13 64° ESE 17:42:03 10° NNE
[s.n.49165] 3.2 17:36:40 10° SSW 17:39:31 65° ESE 17:42:21 10° NNE
[s.n.49162] 3.1 17:36:58 10° SSW 17:39:50 66° ESE 17:42:39 10° NNE
Cosmos 1741 Rocket 4.1 17:35:41 10° NNW 17:40:51 61° WSW 17:46:07 10° SSE
